Location: Unspecified
(0.0000°N, 0.0000°E)
Time: 08:50:33
(UTC+00:00)

Courier 1B - All Passes

Search period start: 03 March 2024 00:00
Search period end: 13 March 2024 00:00
Orbit: 962 x 1209 km, 28.3° (Epoch: 03 March)

Date Brightness Start Highest point End Pass type
(mag) Time Alt. Az. Time Alt. Az. Time Alt. Az.
03 Mar - 03:41:45 10° NNW 03:47:24 31° NNE 03:53:15 10° E visible
03 Mar - 05:34:54 10° WNW 05:41:29 71° SSW 05:48:30 10° SE visible
03 Mar - 07:30:54 10° WSW 07:36:00 22° SSW 07:41:21 10° SSE daylight
03 Mar - 13:23:20 10° S 13:25:28 11° SSE 13:27:36 10° SE daylight
03 Mar - 15:14:08 10° SSW 15:20:58 32° SSE 15:27:37 10° E daylight
03 Mar - 17:07:44 10° WSW 17:15:32 84° NNW 17:22:56 10° ENE daylight
03 Mar - 19:03:58 10° W 19:09:57 26° NNW 19:15:41 10° NNE visible
04 Mar - 02:48:36 10° NNW 02:53:30 22° NNE 02:58:29 10° ENE visible
04 Mar - 04:41:07 10° WNW 04:47:39 83° NNE 04:54:32 10° ESE visible
04 Mar - 06:36:15 10° W 06:41:55 28° SSW 06:47:54 10° SSE daylight
04 Mar - 14:20:39 10° SSW 14:26:45 24° SSE 14:32:47 10° ESE daylight
04 Mar - 16:13:39 10° SW 16:21:31 73° SSE 16:29:01 10° ENE daylight
04 Mar - 18:09:02 10° W 18:15:54 35° NNW 18:22:26 10° NE daylight
04 Mar - 20:09:23 10° NW 20:10:54 11° NNW 20:12:24 10° N visible
05 Mar - 01:55:42 10° NNW 01:59:31 16° NNE 02:03:21 10° ENE night (unlit)
05 Mar - 03:47:30 10° NW 03:53:51 58° NNE 04:00:26 10° ESE visible
05 Mar - 05:41:53 10° W 05:47:57 38° SSW 05:54:21 10° SE visible
05 Mar - 07:40:12 10° SW 07:42:55 12° SSW 07:45:42 10° S daylight
05 Mar - 13:27:22 10° SSW 13:32:28 18° SSE 13:37:34 10° ESE daylight
05 Mar - 15:19:46 10° SW 15:27:26 54° SSE 15:34:53 10° ENE daylight
05 Mar - 17:14:24 10° WSW 17:21:52 49° NNW 17:29:00 10° NE daylight
05 Mar - 19:12:35 10° WNW 19:16:39 15° NNW 19:20:35 10° N visible
06 Mar - 01:03:21 10° N 01:05:26 12° NNE 01:07:30 10° NE night (unlit)
06 Mar - 02:54:02 10° NW 03:00:03 41° NNE 03:06:10 10° E visible
06 Mar - 04:47:44 10° WNW 04:54:04 53° SSW 05:00:41 10° SE visible
06 Mar - 06:44:41 10° WSW 06:48:41 16° SSW 06:52:50 10° SSE daylight
06 Mar - 12:34:25 10° S 12:38:06 14° SSE 12:41:48 10° SE daylight
06 Mar - 14:26:02 10° SW 14:33:19 40° SSE 14:40:31 10° E daylight
06 Mar - 16:20:01 10° WSW 16:27:49 67° NNW 16:35:21 10° NE daylight
06 Mar - 18:16:57 10° WNW 18:22:27 21° NNW 18:27:45 10° NNE daylight
07 Mar - 02:00:41 10° NNW 02:06:12 29° NNE 02:11:42 10° E visible
07 Mar - 03:53:48 10° WNW 04:00:15 76° SSW 04:06:55 10° SE visible
07 Mar - 05:49:42 10° WSW 05:54:35 21° SSW 05:59:39 10° SSE visible
07 Mar - 11:42:55 10° SSE 11:43:40 10° SSE 11:44:24 10° SSE daylight
07 Mar - 13:32:29 10° SSW 13:39:09 30° SSE 13:45:50 10° E daylight
07 Mar - 15:25:50 10° WSW 15:33:46 89° NNW 15:41:31 10° ENE daylight
07 Mar - 17:21:48 10° W 17:28:18 29° NNW 17:34:35 10° NNE daylight
08 Mar - 01:07:29 10° NNW 01:12:16 21° NNE 01:16:59 10° ENE night (unlit)
08 Mar - 03:00:01 10° NW 03:06:28 77° NNE 03:13:02 10° ESE visible
08 Mar - 04:55:04 10° W 05:00:36 29° SSW 05:06:18 10° SSE visible
08 Mar - 12:39:08 10° SSW 12:44:56 23° SSE 12:50:49 10° ESE daylight
08 Mar - 14:31:52 10° SW 14:39:41 69° SSE 14:47:27 10° ENE daylight
08 Mar - 16:26:59 10° W 16:34:10 39° NNW 16:41:11 10° NE daylight
08 Mar - 18:26:14 10° NW 18:29:16 13° NNW 18:32:15 10° N visible
09 Mar - 00:14:30 10° NNW 00:18:14 15° NNE 00:21:54 10° ENE night (unlit)
09 Mar - 02:06:21 10° NW 02:12:42 54° NNE 02:19:00 10° ESE visible
09 Mar - 04:00:43 10° W 04:06:42 40° SSW 04:12:51 10° SE visible
09 Mar - 05:59:03 10° SW 06:01:28 12° SSW 06:03:55 10° S daylight
09 Mar - 11:46:03 10° SSW 11:50:40 17° SSE 11:55:21 10° ESE daylight
09 Mar - 13:38:05 10° SW 13:45:36 51° SSE 13:53:10 10° ENE daylight
09 Mar - 15:32:27 10° WSW 15:40:05 53° NNW 15:47:35 10° NE daylight
09 Mar - 17:30:09 10° WNW 17:34:57 17° NNW 17:39:40 10° NNE daylight
09 Mar - 23:22:03 10° N 23:24:05 11° NNE 23:26:06 10° NE night (unlit)
10 Mar - 01:12:49 10° NW 01:18:52 38° NNE 01:24:48 10° E night (unlit)
10 Mar - 03:06:33 10° WNW 03:12:53 57° SSW 03:19:17 10° SE visible
10 Mar - 05:03:27 10° WSW 05:07:20 16° SSW 05:11:16 10° SSE visible
10 Mar - 10:53:30 10° S 10:56:20 12° SSE 10:59:13 10° SE daylight
10 Mar - 12:44:30 10° SW 12:51:29 38° SSE 12:58:38 10° E daylight
10 Mar - 14:38:11 10° WSW 14:45:59 71° NNW 14:53:48 10° NE daylight
10 Mar - 16:34:45 10° WNW 16:40:43 23° NNW 16:46:34 10° NNE daylight
11 Mar - 00:19:23 10° NNW 00:24:59 28° NNE 00:30:23 10° E night (unlit)
11 Mar - 02:12:34 10° WNW 02:19:06 81° SSW 02:25:36 10° ESE visible
11 Mar - 04:08:27 10° WSW 04:13:18 22° SSW 04:18:14 10° SSE visible
11 Mar - 11:51:06 10° SSW 11:57:21 28° SSE 12:03:48 10° E daylight
11 Mar - 13:44:08 10° WSW 13:51:55 86° SSE 13:59:49 10° ENE daylight
11 Mar - 15:39:45 10° W 15:46:30 31° NNW 15:53:13 10° NNE daylight
11 Mar - 17:40:42 10° NNW 17:41:55 10° NNW 17:43:09 10° N daylight
11 Mar - 23:26:05 10° NNW 23:30:59 21° NNE 23:35:43 10° ENE night (unlit)
12 Mar - 01:18:42 10° NW 01:25:20 72° NNE 01:31:47 10° ESE night (unlit)
12 Mar - 03:13:47 10° W 03:19:23 30° SSW 03:25:00 10° SSE visible
12 Mar - 10:57:56 10° SSW 11:03:12 20° SSE 11:08:36 10° ESE daylight
12 Mar - 12:50:19 10° SW 12:57:51 64° SSE 13:05:38 10° ENE daylight
12 Mar - 14:45:06 10° W 14:52:21 42° NNW 14:59:39 10° NE daylight
12 Mar - 16:43:40 10° NW 16:47:30 14° NNW 16:51:19 10° N daylight
12 Mar - 22:32:58 10° NNW 22:36:52 15° NNE 22:40:40 10° ENE night (unlit)
